owner,sensor,date,latitude,longitude,air_temperature,qcFlag 
COMPS,ioos:station:USF.COMPS:C10:1,2009-01-01T00:00:00Z,27.1690,-82.9260,20.23,1111122 
COMPS,ioos:station:USF.COMPS:C10:1,2009-01-01T00:20:00Z,27.1690,-82.9260,19.25,1111122 
COMPS,ioos:station:USF.COMPS:C10:1,2009-01-01T00:40:00Z,27.1690,-82.9260,19.0,1111122 
COMPS,ioos:station:USF.COMPS:C10:1,2009-01-01T01:00:00Z,27.1690,-82.9260,18.76,1111122 
COMPS,ioos:station:USF.COMPS:C10:1,2009-01-01T01:20:00Z,27.1690,-82.9260,18.75,1111122 
COMPS,ioos:station:USF.COMPS:C10:1,2009-01-01T01:40:00Z,27.1690,-82.9260,18.77,1111122 
COMPS,ioos:station:USF.COMPS:C10:1,2009-01-01T02:00:00Z,27.1690,-82.9260,18.66,1111122 
COMPS,ioos:station:USF.COMPS:C10:1,2009-01-01T02:20:00Z,27.1690,-82.9260,18.65,1111122 
COMPS,ioos:station:USF.COMPS:C10:1,2009-01-01T02:40:00Z,27.1690,-82.9260,18.41,1111122 
COMPS,ioos:station:USF.COMPS:C10:1,2009-01-01T03:00:00Z,27.1690,-82.9260,18.32,1111122 
COMPS,ioos:station:USF.COMPS:C10:1,2009-01-01T03:20:00Z,27.1690,-82.9260,18.43,1111122 
COMPS,ioos:station:USF.COMPS:C10:1,2009-01-01T03:40:00Z,27.1690,-82.9260,18.43,1111122 
COMPS,ioos:station:USF.COMPS:C10:1,2009-01-01T04:00:00Z,27.1690,-82.9260,18.5,1111122 
COMPS,ioos:station:USF.COMPS:C10:1,2009-01-01T04:20:00Z,27.1690,-82.9260,18.45,1111122 
COMPS,ioos:station:USF.COMPS:C10:1,2009-01-01T04:40:00Z,27.1690,-82.9260,18.51,1111122 
COMPS,ioos:station:USF.COMPS:C10:1,2009-01-01T05:00:00Z,27.1690,-82.9260,18.44,1111122 
COMPS,ioos:station:USF.COMPS:C10:1,2009-01-01T05:20:00Z,27.1690,-82.9260,18.25,1111122 
COMPS,ioos:station:USF.COMPS:C10:1,2009-01-01T05:40:00Z,27.1690,-82.9260,18.21,1111122 
COMPS,ioos:station:USF.COMPS:C10:1,2009-01-01T06:00:00Z,27.1690,-82.9260,18.19,1111122 
COMPS,ioos:station:USF.COMPS:C10:1,2009-01-01T06:20:00Z,27.1690,-82.9260,18.25,1111122 
COMPS,ioos:station:USF.COMPS:C10:1,2009-01-01T06:40:00Z,27.1690,-82.9260,18.0,1111122 
COMPS,ioos:station:USF.COMPS:C10:1,2009-01-01T07:00:00Z,27.1690,-82.9260,18.01,1111122 
COMPS,ioos:station:USF.COMPS:C10:1,2009-01-01T07:20:00Z,27.1690,-82.9260,17.98,1111122 
COMPS,ioos:station:USF.COMPS:C10:1,2009-01-01T07:40:00Z,27.1690,-82.9260,17.78,1111122 
COMPS,ioos:station:USF.COMPS:C10:1,2009-01-01T08:00:00Z,27.1690,-82.9260,17.67,1111122 
COMPS,ioos:station:USF.COMPS:C10:1,2009-01-01T08:20:00Z,27.1690,-82.9260,17.32,1111122 
COMPS,ioos:station:USF.COMPS:C10:1,2009-01-01T08:40:00Z,27.1690,-82.9260,17.17,1111122 
COMPS,ioos:station:USF.COMPS:C10:1,2009-01-01T09:00:00Z,27.1690,-82.9260,17.05,1111122 
COMPS,ioos:station:USF.COMPS:C10:1,2009-01-01T09:20:00Z,27.1690,-82.9260,16.97,1111122 
COMPS,ioos:station:USF.COMPS:C10:1,2009-01-01T09:40:00Z,27.1690,-82.9260,16.81,1111122 
COMPS,ioos:station:USF.COMPS:C10:1,2009-01-01T10:00:00Z,27.1690,-82.9260,16.81,1111122 
COMPS,ioos:station:USF.COMPS:C10:1,2009-01-01T10:20:00Z,27.1690,-82.9260,16.8,1111122 
COMPS,ioos:station:USF.COMPS:C10:1,2009-01-01T10:40:00Z,27.1690,-82.9260,16.57,1111122 
COMPS,ioos:station:USF.COMPS:C10:1,2009-01-01T11:00:00Z,27.1690,-82.9260,16.45,1111122 
COMPS,ioos:station:USF.COMPS:C10:1,2009-01-01T11:20:00Z,27.1690,-82.9260,16.22,1111122 
COMPS,ioos:station:USF.COMPS:C10:1,2009-01-01T11:40:00Z,27.1690,-82.9260,16.07,1111122 
COMPS,ioos:station:USF.COMPS:C10:1,2009-01-01T12:00:00Z,27.1690,-82.9260,16.09,1111122 
COMPS,ioos:station:USF.COMPS:C10:1,2009-01-01T12:20:00Z,27.1690,-82.9260,16.23,1111122 
COMPS,ioos:station:USF.COMPS:C10:1,2009-01-01T12:40:00Z,27.1690,-82.9260,16.24,1111122 
COMPS,ioos:station:USF.COMPS:C10:1,2009-01-01T14:00:00Z,27.1690,-82.9260,16.41,1111122 
COMPS,ioos:station:USF.COMPS:C10:1,2009-01-01T14:20:00Z,27.1690,-82.9260,16.7,1111122 
COMPS,ioos:station:USF.COMPS:C10:1,2009-01-01T14:40:00Z,27.1690,-82.9260,16.83,1111122 
COMPS,ioos:station:USF.COMPS:C10:1,2009-01-01T15:00:00Z,27.1690,-82.9260,16.93,1111122 
COMPS,ioos:station:USF.COMPS:C10:1,2009-01-01T15:20:00Z,27.1690,-82.9260,17.04,1111122 
COMPS,ioos:station:USF.COMPS:C10:1,2009-01-01T15:40:00Z,27.1690,-82.9260,17.59,1111122 
COMPS,ioos:station:USF.COMPS:C10:1,2009-01-01T16:00:00Z,27.1690,-82.9260,17.76,1111122 
COMPS,ioos:station:USF.COMPS:C10:1,2009-01-01T16:20:00Z,27.1690,-82.9260,17.96,1111122 
COMPS,ioos:station:USF.COMPS:C10:1,2009-01-01T16:40:00Z,27.1690,-82.9260,18.21,1111122 
COMPS,ioos:station:USF.COMPS:C10:1,2009-01-01T17:00:00Z,27.1690,-82.9260,18.5,1111122 
COMPS,ioos:station:USF.COMPS:C10:1,2009-01-01T17:20:00Z,27.1690,-82.9260,18.76,1111122 
COMPS,ioos:station:USF.COMPS:C10:1,2009-01-01T17:40:00Z,27.1690,-82.9260,19.1,1111122 
COMPS,ioos:station:USF.COMPS:C10:1,2009-01-01T18:00:00Z,27.1690,-82.9260,19.69,1111122 
COMPS,ioos:station:USF.COMPS:C10:1,2009-01-01T18:20:00Z,27.1690,-82.9260,20.01,1111122 
COMPS,ioos:station:USF.COMPS:C10:1,2009-01-01T18:40:00Z,27.1690,-82.9260,20.26,1111122 
COMPS,ioos:station:USF.COMPS:C10:1,2009-01-01T19:00:00Z,27.1690,-82.9260,20.41,1111122 
COMPS,ioos:station:USF.COMPS:C10:1,2009-01-01T19:20:00Z,27.1690,-82.9260,20.52,1111122 
COMPS,ioos:station:USF.COMPS:C10:1,2009-01-01T19:40:00Z,27.1690,-82.9260,20.61,1111122 
COMPS,ioos:station:USF.COMPS:C10:1,2009-01-01T20:00:00Z,27.1690,-82.9260,20.68,1111122 
COMPS,ioos:station:USF.COMPS:C10:1,2009-01-01T20:20:00Z,27.1690,-82.9260,20.89,1111122 
COMPS,ioos:station:USF.COMPS:C10:1,2009-01-01T20:40:00Z,27.1690,-82.9260,20.99,1111122 
COMPS,ioos:station:USF.COMPS:C10:1,2009-01-01T21:00:00Z,27.1690,-82.9260,21.28,1111122 
COMPS,ioos:station:USF.COMPS:C10:1,2009-01-01T21:20:00Z,27.1690,-82.9260,21.21,1111122 
COMPS,ioos:station:USF.COMPS:C10:1,2009-01-01T21:40:00Z,27.1690,-82.9260,21.0,1111122 
COMPS,ioos:station:USF.COMPS:C10:1,2009-01-01T22:00:00Z,27.1690,-82.9260,20.69,1111122 
COMPS,ioos:station:USF.COMPS:C10:1,2009-01-01T22:20:00Z,27.1690,-82.9260,20.5,1111122 
COMPS,ioos:station:USF.COMPS:C10:1,2009-01-01T22:40:00Z,27.1690,-82.9260,20.52,1111122 
COMPS,ioos:station:USF.COMPS:C10:1,2009-01-01T23:00:00Z,27.1690,-82.9260,20.39,1111122 
COMPS,ioos:station:USF.COMPS:C10:1,2009-01-01T23:20:00Z,27.1690,-82.9260,20.71,1111122 
COMPS,ioos:station:USF.COMPS:C10:1,2009-01-01T23:40:00Z,27.1690,-82.9260,20.61,1111122 
COMPS,ioos:station:USF.COMPS:C10:1,2009-01-02T00:00:00Z,27.1690,-82.9260,20.23,1111122 
COMPS,ioos:station:USF.COMPS:C10:1,2009-01-02T00:20:00Z,27.1690,-82.9260,20.01,1111122 
COMPS,ioos:station:USF.COMPS:C10:1,2009-01-02T00:40:00Z,27.1690,-82.9260,19.78,1111122 
COMPS,ioos:station:USF.COMPS:C10:1,2009-01-02T01:00:00Z,27.1690,-82.9260,19.63,1111122 
COMPS,ioos:station:USF.COMPS:C10:1,2009-01-02T01:20:00Z,27.1690,-82.9260,19.3,1111122 
COMPS,ioos:station:USF.COMPS:C10:1,2009-01-02T01:40:00Z,27.1690,-82.9260,19.13,1111122 
COMPS,ioos:station:USF.COMPS:C10:1,2009-01-02T02:00:00Z,27.1690,-82.9260,18.94,1111122 
COMPS,ioos:station:USF.COMPS:C10:1,2009-01-02T02:20:00Z,27.1690,-82.9260,17.62,1111122 
COMPS,ioos:station:USF.COMPS:C10:1,2009-01-02T02:40:00Z,27.1690,-82.9260,18.12,1111122 
COMPS,ioos:station:USF.COMPS:C10:1,2009-01-02T03:00:00Z,27.1690,-82.9260,18.31,1111122 
COMPS,ioos:station:USF.COMPS:C10:1,2009-01-02T03:20:00Z,27.1690,-82.9260,18.28,1111122 
COMPS,ioos:station:USF.COMPS:C10:1,2009-01-02T03:40:00Z,27.1690,-82.9260,18.3,1111122 
COMPS,ioos:station:USF.COMPS:C10:1,2009-01-02T04:00:00Z,27.1690,-82.9260,18.12,1111122 
COMPS,ioos:station:USF.COMPS:C10:1,2009-01-02T04:20:00Z,27.1690,-82.9260,17.83,1111122 
COMPS,ioos:station:USF.COMPS:C10:1,2009-01-02T04:40:00Z,27.1690,-82.9260,18.02,1111122 
COMPS,ioos:station:USF.COMPS:C10:1,2009-01-02T05:00:00Z,27.1690,-82.9260,17.98,1111122 
COMPS,ioos:station:USF.COMPS:C10:1,2009-01-02T05:20:00Z,27.1690,-82.9260,17.85,1111122 
COMPS,ioos:station:USF.COMPS:C10:1,2009-01-02T05:40:00Z,27.1690,-82.9260,17.83,1111122 
COMPS,ioos:station:USF.COMPS:C10:1,2009-01-02T06:00:00Z,27.1690,-82.9260,17.88,1111122 
COMPS,ioos:station:USF.COMPS:C10:1,2009-01-02T06:20:00Z,27.1690,-82.9260,17.93,1111122 
COMPS,ioos:station:USF.COMPS:C10:1,2009-01-02T06:40:00Z,27.1690,-82.9260,18.18,1111122 
COMPS,ioos:station:USF.COMPS:C10:1,2009-01-02T07:00:00Z,27.1690,-82.9260,18.21,1111122 
COMPS,ioos:station:USF.COMPS:C10:1,2009-01-02T07:20:00Z,27.1690,-82.9260,18.32,1111122 
COMPS,ioos:station:USF.COMPS:C10:1,2009-01-02T07:40:00Z,27.1690,-82.9260,18.25,1111122 
COMPS,ioos:station:USF.COMPS:C10:1,2009-01-02T08:00:00Z,27.1690,-82.9260,18.32,1111122 
COMPS,ioos:station:USF.COMPS:C10:1,2009-01-02T08:20:00Z,27.1690,-82.9260,18.48,1111122 
COMPS,ioos:station:USF.COMPS:C10:1,2009-01-02T08:40:00Z,27.1690,-82.9260,18.45,1111122 
COMPS,ioos:station:USF.COMPS:C10:1,2009-01-02T09:00:00Z,27.1690,-82.9260,18.58,1111122 
COMPS,ioos:station:USF.COMPS:C10:1,2009-01-02T09:20:00Z,27.1690,-82.9260,18.6,1111122 
COMPS,ioos:station:USF.COMPS:C10:1,2009-01-02T09:40:00Z,27.1690,-82.9260,18.69,1111122 
COMPS,ioos:station:USF.COMPS:C10:1,2009-01-02T10:00:00Z,27.1690,-82.9260,18.65,1111122 
COMPS,ioos:station:USF.COMPS:C10:1,2009-01-02T10:20:00Z,27.1690,-82.9260,18.78,1111122 
COMPS,ioos:station:USF.COMPS:C10:1,2009-01-02T10:40:00Z,27.1690,-82.9260,18.65,1111122 
COMPS,ioos:station:USF.COMPS:C10:1,2009-01-02T11:00:00Z,27.1690,-82.9260,18.62,1111122 
COMPS,ioos:station:USF.COMPS:C10:1,2009-01-02T11:20:00Z,27.1690,-82.9260,18.4,1111122 
COMPS,ioos:station:USF.COMPS:C10:1,2009-01-02T11:40:00Z,27.1690,-82.9260,17.97,1111122 
COMPS,ioos:station:USF.COMPS:C10:1,2009-01-02T12:00:00Z,27.1690,-82.9260,18.15,1111122 
COMPS,ioos:station:USF.COMPS:C10:1,2009-01-02T12:20:00Z,27.1690,-82.9260,18.34,1111122 
COMPS,ioos:station:USF.COMPS:C10:1,2009-01-02T12:40:00Z,27.1690,-82.9260,18.5,1111122 
COMPS,ioos:station:USF.COMPS:C10:1,2009-01-02T13:00:00Z,27.1690,-82.9260,18.45,1111122 
COMPS,ioos:station:USF.COMPS:C10:1,2009-01-02T13:20:00Z,27.1690,-82.9260,18.59,1111122 
COMPS,ioos:station:USF.COMPS:C10:1,2009-01-02T13:40:00Z,27.1690,-82.9260,18.48,1111122 
COMPS,ioos:station:USF.COMPS:C10:1,2009-01-02T14:00:00Z,27.1690,-82.9260,18.44,1111122 
COMPS,ioos:station:USF.COMPS:C10:1,2009-01-02T14:20:00Z,27.1690,-82.9260,18.59,1111122 
COMPS,ioos:station:USF.COMPS:C10:1,2009-01-02T14:40:00Z,27.1690,-82.9260,18.84,1111122 
COMPS,ioos:station:USF.COMPS:C10:1,2009-01-02T15:00:00Z,27.1690,-82.9260,19.1,1111122 
COMPS,ioos:station:USF.COMPS:C10:1,2009-01-02T15:20:00Z,27.1690,-82.9260,19.08,1111122 
COMPS,ioos:station:USF.COMPS:C10:1,2009-01-02T15:40:00Z,27.1690,-82.9260,19.19,1111122 
COMPS,ioos:station:USF.COMPS:C10:1,2009-01-02T16:00:00Z,27.1690,-82.9260,19.51,1111122 
COMPS,ioos:station:USF.COMPS:C10:1,2009-01-02T16:20:00Z,27.1690,-82.9260,19.65,1111122 
COMPS,ioos:station:USF.COMPS:C10:1,2009-01-02T16:40:00Z,27.1690,-82.9260,19.67,1111122 
COMPS,ioos:station:USF.COMPS:C10:1,2009-01-02T17:00:00Z,27.1690,-82.9260,19.92,1111122 
COMPS,ioos:station:USF.COMPS:C10:1,2009-01-02T17:20:00Z,27.1690,-82.9260,20.03,1111122 
COMPS,ioos:station:USF.COMPS:C10:1,2009-01-02T17:40:00Z,27.1690,-82.9260,19.88,1111122 
COMPS,ioos:station:USF.COMPS:C10:1,2009-01-02T18:00:00Z,27.1690,-82.9260,20.08,1111122 
COMPS,ioos:station:USF.COMPS:C10:1,2009-01-02T18:20:00Z,27.1690,-82.9260,20.06,1111122 
COMPS,ioos:station:USF.COMPS:C10:1,2009-01-02T18:40:00Z,27.1690,-82.9260,20.01,1111122 
COMPS,ioos:station:USF.COMPS:C10:1,2009-01-02T19:00:00Z,27.1690,-82.9260,20.13,1111122 
COMPS,ioos:station:USF.COMPS:C10:1,2009-01-02T19:20:00Z,27.1690,-82.9260,20.27,1111122 
COMPS,ioos:station:USF.COMPS:C10:1,2009-01-02T19:40:00Z,27.1690,-82.9260,20.5,1111122 
COMPS,ioos:station:USF.COMPS:C10:1,2009-01-02T20:00:00Z,27.1690,-82.9260,20.65,1111122 
COMPS,ioos:station:USF.COMPS:C10:1,2009-01-02T20:20:00Z,27.1690,-82.9260,20.77,1111122 
COMPS,ioos:station:USF.COMPS:C10:1,2009-01-02T20:40:00Z,27.1690,-82.9260,20.91,1111122 
COMPS,ioos:station:USF.COMPS:C10:1,2009-01-02T21:00:00Z,27.1690,-82.9260,20.96,1111122 
COMPS,ioos:station:USF.COMPS:C10:1,2009-01-02T21:20:00Z,27.1690,-82.9260,20.95,1111122 
COMPS,ioos:station:USF.COMPS:C10:1,2009-01-02T21:40:00Z,27.1690,-82.9260,20.9,1111122 
COMPS,ioos:station:USF.COMPS:C10:1,2009-01-02T22:00:00Z,27.1690,-82.9260,20.92,1111122 
COMPS,ioos:station:USF.COMPS:C10:1,2009-01-02T22:20:00Z,27.1690,-82.9260,20.87,1111122 
COMPS,ioos:station:USF.COMPS:C10:1,2009-01-02T22:40:00Z,27.1690,-82.9260,20.77,1111122 
COMPS,ioos:station:USF.COMPS:C10:1,2009-01-02T23:00:00Z,27.1690,-82.9260,20.74,1111122 
COMPS,ioos:station:USF.COMPS:C10:1,2009-01-02T23:20:00Z,27.1690,-82.9260,20.75,1111122 
COMPS,ioos:station:USF.COMPS:C10:1,2009-01-02T23:40:00Z,27.1690,-82.9260,20.73,1111122 
COMPS,ioos:station:USF.COMPS:C10:1,2009-01-03T00:00:00Z,27.1690,-82.9260,20.7,1111122 
COMPS,ioos:station:USF.COMPS:C10:1,2009-01-03T00:20:00Z,27.1690,-82.9260,20.71,1111122 
COMPS,ioos:station:USF.COMPS:C10:1,2009-01-03T00:40:00Z,27.1690,-82.9260,20.67,1111122 
COMPS,ioos:station:USF.COMPS:C10:1,2009-01-03T01:00:00Z,27.1690,-82.9260,20.71,1111122 
COMPS,ioos:station:USF.COMPS:C10:1,2009-01-03T01:20:00Z,27.1690,-82.9260,20.72,1111122 
COMPS,ioos:station:USF.COMPS:C10:1,2009-01-03T01:40:00Z,27.1690,-82.9260,20.76,1111122 
COMPS,ioos:station:USF.COMPS:C10:1,2009-01-03T02:00:00Z,27.1690,-82.9260,20.76,1111122 
COMPS,ioos:station:USF.COMPS:C10:1,2009-01-03T02:20:00Z,27.1690,-82.9260,20.76,1111122 
COMPS,ioos:station:USF.COMPS:C10:1,2009-01-03T02:40:00Z,27.1690,-82.9260,20.76,1111122 
COMPS,ioos:station:USF.COMPS:C10:1,2009-01-03T03:00:00Z,27.1690,-82.9260,20.75,1111122 
COMPS,ioos:station:USF.COMPS:C10:1,2009-01-03T03:20:00Z,27.1690,-82.9260,20.76,1111122 
COMPS,ioos:station:USF.COMPS:C10:1,2009-01-03T03:40:00Z,27.1690,-82.9260,20.74,1111122 
COMPS,ioos:station:USF.COMPS:C10:1,2009-01-03T04:00:00Z,27.1690,-82.9260,20.65,1111122 
COMPS,ioos:station:USF.COMPS:C10:1,2009-01-03T04:20:00Z,27.1690,-82.9260,20.62,1111122 
COMPS,ioos:station:USF.COMPS:C10:1,2009-01-03T04:40:00Z,27.1690,-82.9260,20.59,1111122 
COMPS,ioos:station:USF.COMPS:C10:1,2009-01-03T05:00:00Z,27.1690,-82.9260,20.49,1111122 
COMPS,ioos:station:USF.COMPS:C10:1,2009-01-03T05:20:00Z,27.1690,-82.9260,20.49,1111122 
COMPS,ioos:station:USF.COMPS:C10:1,2009-01-03T05:40:00Z,27.1690,-82.9260,20.53,1111122 
COMPS,ioos:station:USF.COMPS:C10:1,2009-01-03T06:00:00Z,27.1690,-82.9260,20.58,1111122 
COMPS,ioos:station:USF.COMPS:C10:1,2009-01-03T06:20:00Z,27.1690,-82.9260,20.57,1111122 
COMPS,ioos:station:USF.COMPS:C10:1,2009-01-03T06:40:00Z,27.1690,-82.9260,20.63,1111122 
COMPS,ioos:station:USF.COMPS:C10:1,2009-01-03T07:00:00Z,27.1690,-82.9260,20.65,1111122 
COMPS,ioos:station:USF.COMPS:C10:1,2009-01-03T07:20:00Z,27.1690,-82.9260,20.58,1111122 
COMPS,ioos:station:USF.COMPS:C10:1,2009-01-03T07:40:00Z,27.1690,-82.9260,20.58,1111122 
COMPS,ioos:station:USF.COMPS:C10:1,2009-01-03T08:00:00Z,27.1690,-82.9260,20.65,1111122 
COMPS,ioos:station:USF.COMPS:C10:1,2009-01-03T08:20:00Z,27.1690,-82.9260,20.55,1111122 
COMPS,ioos:station:USF.COMPS:C10:1,2009-01-03T08:40:00Z,27.1690,-82.9260,20.43,1111122 
COMPS,ioos:station:USF.COMPS:C10:1,2009-01-03T09:00:00Z,27.1690,-82.9260,20.39,1111122 
COMPS,ioos:station:USF.COMPS:C10:1,2009-01-03T09:20:00Z,27.1690,-82.9260,20.31,1111122 
COMPS,ioos:station:USF.COMPS:C10:1,2009-01-03T09:40:00Z,27.1690,-82.9260,20.26,1111122 
COMPS,ioos:station:USF.COMPS:C10:1,2009-01-03T10:00:00Z,27.1690,-82.9260,20.08,1111122 
COMPS,ioos:station:USF.COMPS:C10:1,2009-01-03T10:20:00Z,27.1690,-82.9260,20.03,1111122 
COMPS,ioos:station:USF.COMPS:C10:1,2009-01-03T10:40:00Z,27.1690,-82.9260,20.04,1111122 
COMPS,ioos:station:USF.COMPS:C10:1,2009-01-03T11:00:00Z,27.1690,-82.9260,20.05,1111122 
COMPS,ioos:station:USF.COMPS:C10:1,2009-01-03T11:20:00Z,27.1690,-82.9260,20.12,1111122 
COMPS,ioos:station:USF.COMPS:C10:1,2009-01-03T11:40:00Z,27.1690,-82.9260,20.17,1111122 
COMPS,ioos:station:USF.COMPS:C10:1,2009-01-03T12:00:00Z,27.1690,-82.9260,20.21,1111122 
COMPS,ioos:station:USF.COMPS:C10:1,2009-01-03T12:20:00Z,27.1690,-82.9260,20.23,1111122 
COMPS,ioos:station:USF.COMPS:C10:1,2009-01-03T12:40:00Z,27.1690,-82.9260,20.2,1111122 
COMPS,ioos:station:USF.COMPS:C10:1,2009-01-03T21:00:00Z,27.1690,-82.9260,20.71,1111122 
COMPS,ioos:station:USF.COMPS:C10:1,2009-01-03T21:20:00Z,27.1690,-82.9260,20.64,1111122 
COMPS,ioos:station:USF.COMPS:C10:1,2009-01-03T21:40:00Z,27.1690,-82.9260,20.66,1111122 
COMPS,ioos:station:USF.COMPS:C10:1,2009-01-03T22:00:00Z,27.1690,-82.9260,20.65,1111122 
COMPS,ioos:station:USF.COMPS:C10:1,2009-01-03T22:20:00Z,27.1690,-82.9260,20.7,1111122 
COMPS,ioos:station:USF.COMPS:C10:1,2009-01-03T22:40:00Z,27.1690,-82.9260,20.74,1111122 
COMPS,ioos:station:USF.COMPS:C10:1,2009-01-03T23:00:00Z,27.1690,-82.9260,20.71,1111122 
COMPS,ioos:station:USF.COMPS:C10:1,2009-01-03T23:20:00Z,27.1690,-82.9260,20.72,1111122 
COMPS,ioos:station:USF.COMPS:C10:1,2009-01-03T23:40:00Z,27.1690,-82.9260,20.74,1111122 
COMPS,ioos:station:USF.COMPS:C10:1,2009-01-04T00:00:00Z,27.1690,-82.9260,20.78,1111122 
COMPS,ioos:station:USF.COMPS:C10:1,2009-01-04T00:20:00Z,27.1690,-82.9260,20.66,1111122 
COMPS,ioos:station:USF.COMPS:C10:1,2009-01-04T00:40:00Z,27.1690,-82.9260,20.67,1111122 
COMPS,ioos:station:USF.COMPS:C10:1,2009-01-04T01:00:00Z,27.1690,-82.9260,20.7,1111122 
COMPS,ioos:station:USF.COMPS:C10:1,2009-01-04T01:20:00Z,27.1690,-82.9260,20.59,1111122 
COMPS,ioos:station:USF.COMPS:C10:1,2009-01-04T01:40:00Z,27.1690,-82.9260,20.24,1111122 
COMPS,ioos:station:USF.COMPS:C10:1,2009-01-04T02:00:00Z,27.1690,-82.9260,19.92,1111122 
COMPS,ioos:station:USF.COMPS:C10:1,2009-01-04T02:20:00Z,27.1690,-82.9260,20.01,1111122 
COMPS,ioos:station:USF.COMPS:C10:1,2009-01-04T02:40:00Z,27.1690,-82.9260,20.08,1111122 
COMPS,ioos:station:USF.COMPS:C10:1,2009-01-04T03:00:00Z,27.1690,-82.9260,20.11,1111122 
COMPS,ioos:station:USF.COMPS:C10:1,2009-01-04T03:20:00Z,27.1690,-82.9260,20.27,1111122 
COMPS,ioos:station:USF.COMPS:C10:1,2009-01-04T03:40:00Z,27.1690,-82.9260,20.33,1111122 
COMPS,ioos:station:USF.COMPS:C10:1,2009-01-04T04:00:00Z,27.1690,-82.9260,20.48,1111122 
COMPS,ioos:station:USF.COMPS:C10:1,2009-01-04T04:20:00Z,27.1690,-82.9260,20.48,1111122 
COMPS,ioos:station:USF.COMPS:C10:1,2009-01-04T04:40:00Z,27.1690,-82.9260,20.49,1111122 
COMPS,ioos:station:USF.COMPS:C10:1,2009-01-04T05:00:00Z,27.1690,-82.9260,20.4,1111122 
COMPS,ioos:station:USF.COMPS:C10:1,2009-01-04T05:20:00Z,27.1690,-82.9260,20.46,1111122 
COMPS,ioos:station:USF.COMPS:C10:1,2009-01-04T05:40:00Z,27.1690,-82.9260,20.36,1111122 
COMPS,ioos:station:USF.COMPS:C10:1,2009-01-04T06:00:00Z,27.1690,-82.9260,20.33,1111122 
COMPS,ioos:station:USF.COMPS:C10:1,2009-01-04T06:20:00Z,27.1690,-82.9260,20.17,1111122 
COMPS,ioos:station:USF.COMPS:C10:1,2009-01-04T06:40:00Z,27.1690,-82.9260,20.24,1111122 
COMPS,ioos:station:USF.COMPS:C10:1,2009-01-04T07:00:00Z,27.1690,-82.9260,20.2,1111122 
COMPS,ioos:station:USF.COMPS:C10:1,2009-01-04T07:20:00Z,27.1690,-82.9260,20.01,1111122 
COMPS,ioos:station:USF.COMPS:C10:1,2009-01-04T07:40:00Z,27.1690,-82.9260,19.99,1111122 
COMPS,ioos:station:USF.COMPS:C10:1,2009-01-04T08:00:00Z,27.1690,-82.9260,19.96,1111122 
COMPS,ioos:station:USF.COMPS:C10:1,2009-01-04T08:20:00Z,27.1690,-82.9260,19.98,1111122 
COMPS,ioos:station:USF.COMPS:C10:1,2009-01-04T08:40:00Z,27.1690,-82.9260,19.86,1111122 
COMPS,ioos:station:USF.COMPS:C10:1,2009-01-04T09:00:00Z,27.1690,-82.9260,19.79,1111122 
COMPS,ioos:station:USF.COMPS:C10:1,2009-01-04T09:20:00Z,27.1690,-82.9260,19.7,1111122 
COMPS,ioos:station:USF.COMPS:C10:1,2009-01-04T09:40:00Z,27.1690,-82.9260,19.6,1111122 
COMPS,ioos:station:USF.COMPS:C10:1,2009-01-04T10:00:00Z,27.1690,-82.9260,19.6,1111122 
COMPS,ioos:station:USF.COMPS:C10:1,2009-01-04T10:20:00Z,27.1690,-82.9260,19.51,1111122 
COMPS,ioos:station:USF.COMPS:C10:1,2009-01-04T10:40:00Z,27.1690,-82.9260,19.52,1111122 
COMPS,ioos:station:USF.COMPS:C10:1,2009-01-04T11:00:00Z,27.1690,-82.9260,19.54,1111122 
COMPS,ioos:station:USF.COMPS:C10:1,2009-01-04T11:20:00Z,27.1690,-82.9260,19.54,1111122 
COMPS,ioos:station:USF.COMPS:C10:1,2009-01-04T11:40:00Z,27.1690,-82.9260,19.6,1111122 
COMPS,ioos:station:USF.COMPS:C10:1,2009-01-04T12:00:00Z,27.1690,-82.9260,19.6,1111122 
COMPS,ioos:station:USF.COMPS:C10:1,2009-01-04T12:20:00Z,27.1690,-82.9260,19.58,1111122 
COMPS,ioos:station:USF.COMPS:C10:1,2009-01-04T12:40:00Z,27.1690,-82.9260,19.48,1111122 
COMPS,ioos:station:USF.COMPS:C10:1,2009-01-04T13:00:00Z,27.1690,-82.9260,19.55,1111122 
COMPS,ioos:station:USF.COMPS:C10:1,2009-01-04T13:20:00Z,27.1690,-82.9260,19.56,1111122 
COMPS,ioos:station:USF.COMPS:C10:1,2009-01-04T13:40:00Z,27.1690,-82.9260,19.6,1111122 
COMPS,ioos:station:USF.COMPS:C10:1,2009-01-04T14:00:00Z,27.1690,-82.9260,19.54,1111122 
COMPS,ioos:station:USF.COMPS:C10:1,2009-01-04T14:20:00Z,27.1690,-82.9260,19.75,1111122 
COMPS,ioos:station:USF.COMPS:C10:1,2009-01-04T14:40:00Z,27.1690,-82.9260,19.76,1111122 
COMPS,ioos:station:USF.COMPS:C10:1,2009-01-04T15:00:00Z,27.1690,-82.9260,19.9,1111122 
COMPS,ioos:station:USF.COMPS:C10:1,2009-01-04T15:20:00Z,27.1690,-82.9260,19.95,1111122 
COMPS,ioos:station:USF.COMPS:C10:1,2009-01-04T15:40:00Z,27.1690,-82.9260,19.95,1111122 
COMPS,ioos:station:USF.COMPS:C10:1,2009-01-04T16:00:00Z,27.1690,-82.9260,20.11,1111122 
COMPS,ioos:station:USF.COMPS:C10:1,2009-01-04T16:20:00Z,27.1690,-82.9260,19.98,1111122 
COMPS,ioos:station:USF.COMPS:C10:1,2009-01-04T16:40:00Z,27.1690,-82.9260,20.08,1111122 
COMPS,ioos:station:USF.COMPS:C10:1,2009-01-04T17:00:00Z,27.1690,-82.9260,20.39,1111122 
COMPS,ioos:station:USF.COMPS:C10:1,2009-01-04T17:20:00Z,27.1690,-82.9260,20.46,1111122 
COMPS,ioos:station:USF.COMPS:C10:1,2009-01-04T17:40:00Z,27.1690,-82.9260,20.55,1111122 
COMPS,ioos:station:USF.COMPS:C10:1,2009-01-04T18:00:00Z,27.1690,-82.9260,20.73,1111122 
COMPS,ioos:station:USF.COMPS:C10:1,2009-01-04T18:20:00Z,27.1690,-82.9260,21.1,1111122 
COMPS,ioos:station:USF.COMPS:C10:1,2009-01-04T18:40:00Z,27.1690,-82.9260,21.21,1111122 
COMPS,ioos:station:USF.COMPS:C10:1,2009-01-04T19:00:00Z,27.1690,-82.9260,21.42,1111122 
COMPS,ioos:station:USF.COMPS:C10:1,2009-01-04T19:20:00Z,27.1690,-82.9260,21.66,1111122 
COMPS,ioos:station:USF.COMPS:C10:1,2009-01-04T19:40:00Z,27.1690,-82.9260,21.8,1111122 
COMPS,ioos:station:USF.COMPS:C10:1,2009-01-04T20:00:00Z,27.1690,-82.9260,22.57,1111122 
COMPS,ioos:station:USF.COMPS:C10:1,2009-01-04T20:20:00Z,27.1690,-82.9260,23.36,1111122 
COMPS,ioos:station:USF.COMPS:C10:1,2009-01-04T20:40:00Z,27.1690,-82.9260,22.25,1111122 
COMPS,ioos:station:USF.COMPS:C10:1,2009-01-04T21:00:00Z,27.1690,-82.9260,22.34,1111122 
COMPS,ioos:station:USF.COMPS:C10:1,2009-01-04T21:20:00Z,27.1690,-82.9260,22.84,1111122 
COMPS,ioos:station:USF.COMPS:C10:1,2009-01-04T21:40:00Z,27.1690,-82.9260,22.58,1111122 
COMPS,ioos:station:USF.COMPS:C10:1,2009-01-04T22:00:00Z,27.1690,-82.9260,22.72,1111122 
COMPS,ioos:station:USF.COMPS:C10:1,2009-01-04T22:20:00Z,27.1690,-82.9260,22.23,1111122 
COMPS,ioos:station:USF.COMPS:C10:1,2009-01-04T22:40:00Z,27.1690,-82.9260,21.71,1111122 
COMPS,ioos:station:USF.COMPS:C10:1,2009-01-04T23:00:00Z,27.1690,-82.9260,21.37,1111122 
COMPS,ioos:station:USF.COMPS:C10:1,2009-01-04T23:20:00Z,27.1690,-82.9260,21.12,1111122 
COMPS,ioos:station:USF.COMPS:C10:1,2009-01-04T23:40:00Z,27.1690,-82.9260,21.03,1111122 
COMPS,ioos:station:USF.COMPS:C10:1,2009-01-05T00:00:00Z,27.1690,-82.9260,21.06,1111122 
COMPS,ioos:station:USF.COMPS:C10:1,2009-01-05T00:20:00Z,27.1690,-82.9260,21.02,1111122 
COMPS,ioos:station:USF.COMPS:C10:1,2009-01-05T00:40:00Z,27.1690,-82.9260,20.99,1111122 
COMPS,ioos:station:USF.COMPS:C10:1,2009-01-05T01:00:00Z,27.1690,-82.9260,20.93,1111122 
COMPS,ioos:station:USF.COMPS:C10:1,2009-01-05T01:20:00Z,27.1690,-82.9260,20.91,1111122 
COMPS,ioos:station:USF.COMPS:C10:1,2009-01-05T01:40:00Z,27.1690,-82.9260,20.68,1111122 
COMPS,ioos:station:USF.COMPS:C10:1,2009-01-05T02:00:00Z,27.1690,-82.9260,20.53,1111122 
COMPS,ioos:station:USF.COMPS:C10:1,2009-01-05T02:20:00Z,27.1690,-82.9260,20.47,1111122 
COMPS,ioos:station:USF.COMPS:C10:1,2009-01-05T02:40:00Z,27.1690,-82.9260,20.33,1111122 
COMPS,ioos:station:USF.COMPS:C10:1,2009-01-05T03:00:00Z,27.1690,-82.9260,20.35,1111122 
COMPS,ioos:station:USF.COMPS:C10:1,2009-01-05T03:20:00Z,27.1690,-82.9260,20.22,1111122 